Weather History for Traverse City, MI

Change the Weather History Date:

Tuesday, October 22, 2013

  Actual Average Record
Temperature  
Mean Temperature 42 °F 46 °F  
Max Temperature 49 °F 55 °F 83 °F (1947)
Min Temperature 35 °F 37 °F 22 °F (2008)
Degree Days  
Heating Degree Days 23 19  
Month to date heating degree days 229 340  
Since 1 July heating degree days 444 602  
Cooling Degree Days 0 0  
Month to date cooling degree days 1 0  
Year to date cooling degree days 531 407  
Moisture  
Dew Point 33 °F    
Average Humidity 71    
Maximum Humidity 85    
Minimum Humidity 56    
Precipitation  
Precipitation 0.37 in 0.10 in 1.00 in (1972)
Month to date precipitation 5.53 2.29  
Year to date precipitation 29.02 26.93  
Sea Level Pressure  
Sea Level Pressure 29.82 in    
Wind  
Wind Speed 10 mph (West)    
Max Wind Speed 22 mph    
Max Gust Speed 28 mph    
Visibility 9 miles    
Events Rain , Snow    
T = Trace of Precipitation, MM = Missing Value Source: NWS Daily Summary

Daily Weather History Graph

Daily Weather History Graph

Search for Another Location

Airport:

Trip Planner

Search our weather history database for the weather conditions in past years. The results will help you decide how hot, cold, wet, or windy it might be!

Date:

Astronomy

Oct. 22, 2013 Rise Set
Actual Time 8:07 AM EDT 6:45 PM EDT
Civil Twilight 7:37 AM EDT 7:15 PM EDT
Nautical Twilight 7:03 AM EDT 7:49 PM EDT
Astronomical Twilight 6:29 AM EDT 8:23 PM EDT
Moon 9:18 PM EDT (10/22) 11:41 AM EDT (10/22)
Length of Visible Light 11h 38m
Length of Day
10h 38m
Waning Gibbous, 87% of the Moon is Illuminated
Oct 22
Waning Gibbous
Oct 26
Last Quarter
Nov 3
New
Nov 10
First Quarter
Nov 17
Full

Hourly Weather History & Observations

Time (EDT) Temp. Windchill Dew Point Humidity Pressure Visibility Wind Dir Wind Speed Gust Speed Precip Events Conditions
12:53 AM 35.1 °F 32.2 °F 27.0 °F 72% 29.78 in 10.0 mi SSW 3.5 mph - 0.00 in   Overcast
1:36 AM 35.6 °F 29.9 °F 28.4 °F 75% 29.75 in 2.5 mi WSW 6.9 mph 25.3 mph 0.00 in Snow Light Snow
1:40 AM 35.6 °F 28.0 °F 28.4 °F 75% 29.75 in 3.0 mi WSW 10.4 mph 19.6 mph 0.00 in Snow Light Snow
1:53 AM 37.0 °F 31.6 °F 27.0 °F 67% 29.77 in 10.0 mi WSW 6.9 mph - 0.00 in   Overcast
2:53 AM 37.9 °F 30.9 °F 25.0 °F 60% 29.76 in 10.0 mi WSW 10.4 mph 20.7 mph N/A   Overcast
3:53 AM 39.0 °F 32.3 °F 28.0 °F 65% 29.74 in 10.0 mi WSW 10.4 mph - N/A   Overcast
4:53 AM 39.9 °F 33.4 °F 28.9 °F 65% 29.73 in 10.0 mi WSW 10.4 mph 23.0 mph N/A   Overcast
5:26 AM 39.2 °F 30.8 °F 30.2 °F 70% 29.72 in 10.0 mi West 15.0 mph 24.2 mph N/A   Overcast
5:53 AM 39.9 °F 31.4 °F 30.9 °F 70% 29.73 in 10.0 mi West 16.1 mph 26.5 mph N/A   Overcast
6:53 AM 41.0 °F 35.2 °F 33.1 °F 73% 29.74 in 10.0 mi West 9.2 mph 18.4 mph 0.00 in Rain Light Rain
7:36 AM 39.2 °F 32.5 °F 33.8 °F 81% 29.73 in 10.0 mi West 10.4 mph - 0.00 in Rain Light Rain
7:53 AM 39.9 °F 33.9 °F 34.0 °F 79% 29.76 in 10.0 mi West 9.2 mph - 0.00 in   Mostly Cloudy
8:39 AM 39.2 °F 32.5 °F 33.8 °F 81% 29.76 in 8.0 mi West 10.4 mph 27.6 mph 0.01 in Rain Rain
8:53 AM 39.9 °F 32.1 °F 34.0 °F 79% 29.78 in 10.0 mi WNW 13.8 mph 21.9 mph 0.01 in Rain Light Rain
9:13 AM 39.2 °F 31.6 °F 33.8 °F 81% 29.78 in 10.0 mi West 12.7 mph 21.9 mph 0.00 in   Mostly Cloudy
9:47 AM 39.2 °F 32.5 °F 35.6 °F 87% 29.79 in 8.0 mi WNW 10.4 mph - 0.01 in Rain Light Rain
9:53 AM 39.9 °F 33.4 °F 35.1 °F 83% 29.81 in 9.0 mi West 10.4 mph - 0.01 in Rain Light Rain
10:53 AM 43.0 °F 35.7 °F 36.0 °F 76% 29.82 in 9.0 mi NW 15.0 mph - 0.00 in Rain Light Rain
11:41 AM 41.0 °F 32.5 °F 35.6 °F 81% 29.81 in 8.0 mi NW 17.3 mph 24.2 mph 0.02 in Rain Light Rain
11:53 AM 42.1 °F 35.7 °F 35.1 °F 76% 29.83 in 10.0 mi WNW 11.5 mph - 0.02 in   Mostly Cloudy
12:53 PM 45.0 °F 38.2 °F 33.1 °F 63% 29.83 in 10.0 mi WNW 15.0 mph 24.2 mph N/A   Mostly Cloudy
1:53 PM 48.9 °F - 33.1 °F 54% 29.82 in 10.0 mi NW 16.1 mph 23.0 mph N/A   Mostly Cloudy
2:53 PM 46.9 °F - 32.0 °F 56% 29.82 in 10.0 mi NW 13.8 mph - 0.00 in   Mostly Cloudy
3:53 PM 45.0 °F 37.6 °F 32.0 °F 60% 29.83 in 10.0 mi NW 17.3 mph - N/A   Mostly Cloudy
4:53 PM 43.0 °F 37.2 °F 34.0 °F 71% 29.85 in 10.0 mi NNW 10.4 mph 20.7 mph 0.01 in   Mostly Cloudy
5:53 PM 42.1 °F 35.7 °F 34.0 °F 73% 29.87 in 10.0 mi NNW 11.5 mph - 0.00 in   Unknown
6:47 PM 37.4 °F 29.8 °F 33.8 °F 87% 29.87 in 8.0 mi NW 11.5 mph - 0.01 in Rain Light Rain
6:53 PM 37.0 °F 29.8 °F 33.1 °F 86% 29.88 in 4.0 mi WNW 10.4 mph - 0.04 in Rain Rain
7:18 PM 37.4 °F 33.8 °F 33.8 °F 87% 29.86 in 10.0 mi WSW 4.6 mph - 0.01 in Rain , Snow Light Rain
7:53 PM 37.9 °F 29.6 °F 34.0 °F 86% 29.89 in 10.0 mi WNW 13.8 mph - 0.03 in Rain Light Rain
8:06 PM 35.6 °F 30.7 °F 33.8 °F 93% 29.88 in 5.0 mi WNW 5.8 mph - 0.05 in Rain Rain
8:21 PM 35.6 °F 29.2 °F 33.8 °F 93% 29.88 in 3.0 mi WNW 8.1 mph - 0.10 in Rain , Snow Rain
8:44 PM 35.6 °F 31.7 °F 33.8 °F 93% 29.87 in 8.0 mi SW 4.6 mph - 0.13 in Rain , Snow Light Rain
8:53 PM 35.1 °F 31.0 °F 33.1 °F 92% 29.88 in 8.0 mi SW 4.6 mph - 0.13 in Rain , Snow Light Rain
9:53 PM 35.1 °F 30.1 °F 33.1 °F 92% 29.89 in 8.0 mi WSW 5.8 mph - 0.04 in Rain Light Rain
10:25 PM 35.6 °F 28.6 °F 33.8 °F 93% 29.88 in 7.0 mi WNW 9.2 mph - 0.03 in Rain Light Rain
10:40 PM 35.6 °F 30.7 °F 33.8 °F 93% 29.88 in 5.0 mi North 5.8 mph - 0.07 in Rain Rain
10:50 PM 37.4 °F - 33.8 °F 87% 29.87 in 9.0 mi Calm Calm - 0.07 in Rain Light Rain
10:53 PM 37.0 °F - 34.0 °F 89% 29.89 in 10.0 mi Calm Calm - 0.07 in Rain Light Rain
11:13 PM 35.6 °F 28.6 °F 33.8 °F 93% 29.87 in 10.0 mi West 9.2 mph - 0.00 in   Overcast
11:22 PM 35.6 °F 31.7 °F 33.8 °F 93% 29.87 in 10.0 mi WSW 4.6 mph - 0.00 in Rain Light Rain
11:32 PM 35.6 °F 31.7 °F 33.8 °F 93% 29.87 in 10.0 mi South 4.6 mph - 0.00 in   Overcast
11:53 PM 35.1 °F - 33.1 °F 92% 29.89 in 7.0 mi Calm Calm - 0.01 in Rain Light Rain